RHESSI 1 27370U 02004A 21111.38447894 .00005078 00000-0 15150-3 0 9993 2 27370 38.0324 90.8874 0011945 326.2964 33.7047 15.34650362 61623 PEGASUS R/B 1 27371U 02004B 21111.14354887 .00000670 00000-0 48136-4 0 9991 2 27371 38.0296 27.8070 0010815 196.6694 163.3714 15.09409354 54341